Dover AFB, DE

3:14 AM EST on February 24, 2017 (GMT -0500)
Dover Air Force Base

Weather History for KDOV - November, 2011

Change the Weather History Date:

Friday, November 18, 2011

  Actual Average Record
Temperature  
Mean Temperature 38 °F -  
Max Temperature 44 °F 58 °F 71 °F (1953)
Min Temperature 32 °F 36 °F 21 °F (1959)
Degree Days  
Heating Degree Days 27    
Moisture  
Dew Point 23 °F    
Average Humidity 55    
Maximum Humidity 73    
Minimum Humidity 41    
Precipitation  
Precipitation 0.00 in - - ()
Sea Level Pressure  
Sea Level Pressure 30.40 in    
Wind  
Wind Speed 9 mph (WSW)    
Max Wind Speed 14 mph    
Max Gust Speed 18 mph    
Visibility 10 miles    
Events Rain    
Averages and records for this station are not official NWS values.
T = Trace of Precipitation, MM = Missing Value Source: NWS Daily Summary

Daily Weather History Graph

Daily Weather History Graph

Search for Another Location

Airport or City:

Trip Planner

Search our weather history database for the weather conditions in past years. The results will help you decide how hot, cold, wet, or windy it might be!

Date:

Astronomy

Nov. 18, 2011 Rise Set
Actual Time 6:48 AM EST 4:45 PM EST
Civil Twilight 6:19 AM EST 5:14 PM EST
Nautical Twilight 5:46 AM EST 5:46 PM EST
Astronomical Twilight 5:15 AM EST 6:18 PM EST
Moon No Moon Rise 12:27 PM EST (11/18)
Length of Visible Light 10h 55m
Length of Day
9h 57m
Waning Gibbous, 49% of the Moon is Illuminated
Nov 18
Waning Gibbous
Nov 25
New
Dec 2
First Quarter
Dec 10
Full
Dec 17
Last Quarter

Hourly Weather History & Observations

Time (EST) Temp. Windchill Dew Point Humidity Pressure Visibility Wind Dir Wind Speed Gust Speed Precip Events Conditions
12:55 AM 37.4 °F 30.8 °F 25.0 °F 61% 30.19 in 10.0 mi West 9.2 mph - N/A   Clear
1:55 AM 36.9 °F 30.1 °F 25.0 °F 62% 30.22 in 10.0 mi West 9.2 mph - N/A   Clear
2:55 AM 36.9 °F 28.7 °F 22.6 °F 56% 30.27 in 10.0 mi West 12.7 mph - N/A   Clear
3:55 AM 36.0 °F 27.5 °F 19.9 °F 52% 30.29 in 10.0 mi WNW 12.7 mph - N/A   Clear
4:55 AM 34.0 °F 28.8 °F 20.8 °F 59% 30.32 in 10.0 mi West 5.8 mph - N/A   Clear
5:55 AM 32.4 °F 26.0 °F 21.2 °F 63% 30.36 in 10.0 mi WSW 6.9 mph - N/A   Clear
6:55 AM 32.5 °F 27.1 °F 20.3 °F 61% 30.40 in 10.0 mi WSW 5.8 mph - N/A   Clear
7:55 AM 34.7 °F 26.9 °F 21.2 °F 58% 30.43 in 10.0 mi West 10.4 mph - N/A   Clear
8:55 AM 38.1 °F 29.8 °F 21.2 °F 51% 30.44 in 10.0 mi West 13.8 mph - N/A   Clear
9:55 AM 40.5 °F 32.8 °F 22.5 °F 49% 30.44 in 10.0 mi West 13.8 mph - N/A   Clear
10:55 AM 42.3 °F 36.3 °F 22.5 °F 45% 30.45 in 10.0 mi NW 10.4 mph - N/A   Clear
11:55 AM 43.3 °F 36.5 °F 22.8 °F 44% 30.44 in 10.0 mi WNW 13.8 mph 18.4 mph N/A   Clear
12:02 PM 42.8 °F 36.2 °F 23.0 °F 46% 30.43 in 10.0 mi WNW 12.7 mph 18.4 mph N/A Rain Light Rain
12:12 PM 42.8 °F 39.3 °F 21.2 °F 42% 30.43 in 10.0 mi WNW 5.8 mph - N/A   Clear
12:55 PM 44.4 °F 38.6 °F 22.5 °F 42% 30.42 in 10.0 mi West 11.5 mph - 0.00 in   Clear
1:55 PM 44.6 °F 40.2 °F 22.1 °F 41% 30.42 in 10.0 mi WNW 8.1 mph - N/A   Clear
2:55 PM 44.2 °F 39.7 °F 22.3 °F 42% 30.42 in 10.0 mi WSW 8.1 mph - N/A   Clear
4:55 PM 39.9 °F 36.7 °F 22.1 °F 49% 30.44 in 10.0 mi WSW 4.6 mph - N/A   Clear
5:55 PM 39.0 °F 35.7 °F 23.0 °F 53% 30.45 in 10.0 mi SSW 4.6 mph - N/A   Clear
6:55 PM 36.5 °F 32.7 °F 23.9 °F 60% 30.45 in 10.0 mi South 4.6 mph - N/A   Clear
7:55 PM 34.2 °F 31.2 °F 24.6 °F 68% 30.46 in 10.0 mi South 3.5 mph - N/A   Clear
8:55 PM 34.2 °F 30.0 °F 23.9 °F 66% 30.48 in 10.0 mi SSW 4.6 mph - N/A   Clear
9:55 PM 32.5 °F 27.1 °F 23.5 °F 69% 30.47 in 10.0 mi South 5.8 mph - N/A   Clear
10:55 PM 32.2 °F 26.7 °F 23.9 °F 72% 30.46 in 10.0 mi South 5.8 mph - N/A   Clear
11:55 PM 32.0 °F 25.6 °F 24.1 °F 73% 30.46 in 10.0 mi South 6.9 mph - N/A   Clear